SCP
0 0 0 0 0 0 0 0 0 0 0 0 0 0 0 0 0 0 0 -0 0 0
0 0 0 0 0 0 0 0 0 0 0 0 0 0 0 0 0 0 0 0 0 0
0 0 0 0 0 0 0 0 0 0 0 0 0 0 0 0 0 0 0 0 0 0
0 0 0 0 0 0 0 0 0 0 0 0 0 0 0 0 0 0 0 0 0 0
0 0 0 0 0 0 0 0 0 0 0 0 0 0 0 0 0 0 0 0 0 0
0 0 0 0 0 0 0 0 0 0 0 0 0 0 0 0 0 0 0 0 0 0
0 0 0 0 0 0 0 0 0 0 0 0 0 0 0 0 0 0 0 0 0 0
0 0 0 0 0 0 0 0 0 0 0 0 0 0 0 0 0 0 0 0 0 0
0 0 0 0 0 0 0 0 0 0 0 0 0 0 0 0 0 0 0 0 0 0
0 0 0 0 0 0 0 0 0 0 0 0 0 0 0 0 0 0 0 0 0 0
0 0 0 0 0 0 0 0 0 0 0 0 0 0 0 0 0 0 0 0 0 0
0 0 0 0 0 0 0 0 0 0 0 0 0 0 0 0 0 0 0 0 0 0
0 0 0 0 0 0 0 0 0 0 0 0 0 0 0 0 0 0 0 0 0 0
0 0 0 0 0 0 0 0 0 0 0 0 0 0 0 0 0 0 0 0 0 0
Wind_Speed_500mb
9 8 10 11 12 15 19 20 22 26 30 34 35 34 37 42 49 66 70 72 73 79
10 11 12 15 17 19 21 22 21 23 26 30 33 35 39 39 40 54 70 79 85 84
10 11 12 13 15 19 22 24 24 24 24 26 29 33 36 37 41 44 51 53 62 71
8 9 11 14 18 20 22 25 27 28 28 27 26 28 32 37 37 40 43 48 53 61
9 10 11 13 17 20 23 25 28 31 33 36 36 32 30 34 41 45 44 43 42 43
12 11 10 11 13 15 19 25 30 33 37 39 38 34 32 29 28 32 35 36 37 38
15 12 11 10 11 14 18 24 27 30 33 35 37 34 33 32 27 25 25 26 24 25
22 16 13 12 15 18 21 22 24 25 26 26 28 32 35 26 22 25 28 27 23 23
26 21 16 16 17 23 23 21 19 20 23 19 22 26 32 24 22 22 29 36 38 41
29 27 18 19 20 22 25 25 22 19 22 23 22 21 20 18 21 26 24 21 24 22
29 26 20 19 21 18 24 25 22 21 22 26 23 18 13 20 17 21 24 25 20 25
28 25 20 17 17 21 25 26 18 14 19 23 27 21 20 16 15 19 20 21 25 19
31 30 24 19 18 22 22 15 10 15 21 24 21 22 20 20 16 19 17 8 19 24
37 35 29 22 20 18 15 11 9 14 23 28 20 24 25 20 16 21 8 3 11 16
Wind_Direction_500mb
217 241 261 278 289 297 305 308 307 304 305 303 296 297 283 272 266 245 253 258 263 269
231 256 276 290 298 303 306 308 307 305 304 302 300 297 288 285 273 262 266 267 268 269
268 281 289 298 309 316 320 320 319 317 311 304 298 296 295 290 281 274 273 273 273 271
281 301 312 318 320 323 325 325 323 321 318 310 302 296 291 291 289 284 279 275 273 274
271 283 291 306 317 322 327 326 324 322 324 323 320 314 301 289 286 286 284 283 280 277
241 242 258 288 300 303 310 314 317 318 320 322 323 321 314 304 292 290 291 290 287 287
227 222 239 258 274 290 305 306 306 307 316 324 328 331 327 319 315 310 304 303 310 306
237 226 237 246 261 284 294 296 297 299 309 318 328 330 332 325 314 308 301 289 288 285
263 242 242 262 280 308 306 299 300 289 295 310 325 331 335 344 348 333 314 298 292 285
259 253 264 280 304 306 307 307 298 285 293 290 304 320 349 15 1 352 338 339 335 334
264 262 253 270 290 294 296 312 301 281 289 288 272 293 306 330 349 344 335 347 339 334
269 251 242 260 261 279 292 309 299 291 300 290 272 264 286 302 323 336 315 314 335 351
256 239 239 247 252 270 292 304 284 302 292 287 280 267 275 282 311 336 325 27 55 34
239 231 233 228 243 267 281 258 247 284 300 290 277 250 264 261 290 315 259 85 49 57
Wind_Speed_850mb
9 8 10 11 12 15 19 20 22 26 30 34 35 34 37 42 49 66 70 72 73 79
10 11 12 15 17 19 21 22 21 23 26 30 33 35 39 39 40 54 70 79 85 84
10 11 12 13 15 19 22 24 24 24 24 26 29 33 36 37 41 44 51 53 62 71
8 9 11 14 18 20 22 25 27 28 28 27 26 28 32 37 37 40 43 48 53 61
9 10 11 13 17 20 23 25 28 31 33 36 36 32 30 34 41 45 44 43 42 43
12 11 10 11 13 15 19 25 30 33 37 39 38 34 32 29 28 32 35 36 37 38
15 12 11 10 11 14 18 24 27 30 33 35 37 34 33 32 27 25 25 26 24 25
22 16 13 12 15 18 21 22 24 25 26 26 28 32 35 26 22 25 28 27 23 23
26 21 16 16 17 23 23 21 19 20 23 19 22 26 32 24 22 22 29 36 38 41
29 27 18 19 20 22 25 25 22 19 22 23 22 21 20 18 21 26 24 21 24 22
29 26 20 19 21 18 24 25 22 21 22 26 23 18 13 20 17 21 24 25 20 25
28 25 20 17 17 21 25 26 18 14 19 23 27 21 20 16 15 19 20 21 25 19
31 30 24 19 18 22 22 15 10 15 21 24 21 22 20 20 16 19 17 8 19 24
37 35 29 22 20 18 15 11 9 14 23 28 20 24 25 20 16 21 8 3 11 16
Wind_Direction_850mb
217 241 261 278 289 297 305 308 307 304 305 303 296 297 283 272 266 245 253 258 263 269
231 256 276 290 298 303 306 308 307 305 304 302 300 297 288 285 273 262 266 267 268 269
268 281 289 298 309 316 320 320 319 317 311 304 298 296 295 290 281 274 273 273 273 271
281 301 312 318 320 323 325 325 323 321 318 310 302 296 291 291 289 284 279 275 273 274
271 283 291 306 317 322 327 326 324 322 324 323 320 314 301 289 286 286 284 283 280 277
241 242 258 288 300 303 310 314 317 318 320 322 323 321 314 304 292 290 291 290 287 287
227 222 239 258 274 290 305 306 306 307 316 324 328 331 327 319 315 310 304 303 310 306
237 226 237 246 261 284 294 296 297 299 309 318 328 330 332 325 314 308 301 289 288 285
263 242 242 262 280 308 306 299 300 289 295 310 325 331 335 344 348 333 314 298 292 285
259 253 264 280 304 306 307 307 298 285 293 290 304 320 349 15 1 352 338 339 335 334
264 262 253 270 290 294 296 312 301 281 289 288 272 293 306 330 349 344 335 347 339 334
269 251 242 260 261 279 292 309 299 291 300 290 272 264 286 302 323 336 315 314 335 351
256 239 239 247 252 270 292 304 284 302 292 287 280 267 275 282 311 336 325 27 55 34
239 231 233 228 243 267 281 258 247 284 300 290 277 250 264 261 290 315 259 85 49 57